Wind_Speed
4 2 7 10 8 9 6 8 11 12 11 8 9 18 20 19 16 16 13 8 7 11 8 22 17 22 19 12 8 13 10 18 23 26 36 27 30 31 30 37 37 40 40 37
4 7 11 12 11 11 11 8 12 8 12 6 13 13 12 15 5 9 3 10 9 7 9 14 18 16 23 21 11 12 26 15 25 28 26 35 31 32 35 35 37 41 38 37
5 6 6 3 5 6 5 5 5 10 12 5 4 4 19 23 10 9 7 10 10 15 15 14 13 18 21 22 15 21 26 26 27 31 28 28 30 26 26 32 39 39 36 35
5 3 4 5 4 3 4 3 7 10 8 3 3 3 17 19 23 20 18 16 7 13 12 12 12 11 8 17 20 12 25 33 27 33 32 37 31 30 25 33 39 37 36 34
6 3 4 2 5 2 6 8 6 7 5 3 4 3 11 15 17 15 20 15 5 6 14 11 9 15 13 17 18 10 18 23 33 34 28 28 28 28 31 29 29 36 34 34
5 5 0 3 7 4 7 3 3 1 1 3 9 3 7 15 16 18 23 21 12 2 5 11 11 16 14 16 14 10 9 26 30 36 34 29 24 24 26 31 31 31 35 36
6 5 6 3 7 5 8 4 3 4 4 3 5 7 5 16 15 14 15 19 18 13 7 8 10 7 12 10 9 6 5 10 30 29 37 36 33 31 25 31 33 30 32 36
4 7 6 9 1 4 5 3 2 2 1 2 6 4 7 13 10 12 12 16 15 16 10 7 4 5 10 9 9 7 2 10 21 26 22 30 33 31 27 23 29 36 39 39
5 5 5 5 4 3 7 4 1 2 3 5 4 6 2 17 15 8 12 17 15 11 10 8 7 4 12 12 11 7 3 3 4 18 23 25 26 27 25 24 24 27 30 32
5 3 3 6 7 7 4 4 3 3 3 4 2 3 4 13 13 14 14 13 15 14 14 10 6 7 4 6 4 11 12 8 10 7 24 21 19 18 27 32 33 30 27 23
4 3 6 5 5 6 6 5 4 3 2 3 2 3 8 10 11 11 13 12 13 14 13 11 8 13 11 8 5 5 13 15 15 16 16 13 14 11 10 13 16 16 17 21
4 3 1 2 4 4 4 4 2 3 5 3 3 2 6 8 10 11 12 13 13 13 12 11 11 16 17 18 19 10 4 17 22 25 25 21 15 14 13 16 18 20 27 27
3 3 3 8 6 6 5 5 3 3 2 2 3 2 5 8 10 11 10 11 11 13 14 13 12 12 17 20 22 21 17 7 11 23 27 26 21 19 23 23 27 28 28 32
4 3 5 4 5 3 5 6 4 4 3 2 1 3 5 8 9 9 9 9 8 9 10 11 13 12 18 19 20 18 18 16 10 10 18 19 14 15 15 20 15 20 25 31
4 3 3 2 4 3 3 4 6 4 3 3 3 3 1 3 3 5 5 7 9 10 12 11 10 10 16 19 23 20 18 14 13 12 11 9 18 17 16 13 7 5 10 14
3 1 3 4 4 4 3 4 3 3 2 3 3 3 1 3 2 5 6 5 7 7 8 9 10 12 16 22 22 19 17 14 12 10 10 7 6 10 11 11 6 6 7 8
3 3 3 3 6 6 5 4 4 2 3 3 3 4 1 2 3 2 4 5 6 6 7 8 7 8 15 20 19 18 15 13 13 11 8 6 4 3 4 4 6 4 7 7
3 2 2 2 4 4 6 3 1 4 6 5 2 3 4 1 4 2 1 3 4 5 6 6 9 13 15 18 18 15 15 14 12 11 9 6 3 1 1 2 2 5 7 7
3 3 2 2 2 5 3 4 4 4 5 7 6 5 4 2 2 3 1 1 2 3 3 6 10 10 13 17 17 15 15 14 14 15 13 10 7 5 4 4 5 6 8 10
3 5 3 1 1 4 3 2 4 3 4 6 6 7 5 4 2 4 1 2 3 5 5 7 7 6 9 13 13 13 14 15 16 17 16 13 10 10 9 9 9 9 9 10
2 3 3 2 3 7 5 5 3 1 5 5 7 6 6 4 4 2 2 3 3 2 4 5 6 5 7 9 10 11 12 14 14 14 14 13 12 12 12 12 13 12 12 11
5 5 3 1 1 6 6 4 6 5 1 6 6 6 6 6 3 3 2 1 4 6 4 4 6 6 6 7 8 8 11 14 15 15 14 14 12 11 11 13 14 13 12 13
3 6 4 8 6 4 9 6 6 5 5 5 6 6 7 6 6 4 3 2 2 6 6 4 3 4 4 7 8 10 12 14 14 12 11 10 9 8 9 8 11 12 12 14
4 4 3 2 3 9 10 8 4 7 7 5 5 6 7 5 5 5 4 4 4 7 7 4 4 4 5 6 7 10 12 13 14 12 11 10 9 7 7 7 8 10 12 14
5 6 5 6 9 6 11 10 8 6 6 5 5 6 6 5 5 5 4 5 8 9 9 7 5 5 5 5 7 10 11 12 12 10 10 10 11 10 10 8 9 11 13 16
6 7 5 7 9 5 6 4 9 10 9 9 8 5 5 6 5 4 6 10 9 9 8 7 7 5 3 3 3 5 7 9 9 10 11 10 10 9 9 11 13 11 12 13
Wind_Direction
197 220 252 239 216 221 248 265 272 290 289 306 255 254 270 288 259 263 258 256 226 237 166 152 147 147 168 180 180 232 197 171 173 171 167 170 174 173 175 178 184 189 190 189
244 244 253 250 263 258 261 253 284 289 274 252 271 275 327 315 271 264 211 250 207 182 114 111 131 146 166 171 182 215 213 206 194 185 174 174 176 173 177 183 187 187 186 185
196 259 296 35 329 344 290 252 327 310 320 299 307 292 6 357 10 355 313 300 182 148 155 146 146 162 179 144 162 204 210 214 200 179 174 163 167 164 170 176 177 181 182 186
253 270 347 334 310 28 302 268 339 319 347 311 1 295 6 355 10 8 7 354 127 147 142 148 163 159 156 142 192 212 202 204 189 178 167 166 168 170 178 170 179 183 189 192
259 286 296 333 274 293 262 283 272 279 295 322 355 65 350 357 26 2 9 355 9 153 133 146 152 147 142 155 183 178 200 205 197 186 176 168 164 169 175 182 184 185 191 196
263 281 349 294 285 279 316 263 306 229 131 52 6 41 351 359 4 14 5 5 12 288 116 129 115 105 126 166 185 207 194 202 204 199 184 176 173 169 174 183 184 186 194 197
337 323 324 352 334 327 357 33 7 19 33 83 344 58 22 352 360 11 6 354 12 351 88 91 98 133 128 167 200 220 257 252 176 171 179 178 180 185 196 198 185 183 192 197
49 347 358 327 332 272 311 17 81 101 103 81 26 42 27 4 15 359 13 10 11 15 36 74 40 74 123 172 202 201 192 29 138 158 162 171 178 188 192 217 201 192 195 195
12 306 341 351 327 27 321 32 21 31 3 64 18 15 343 358 9 355 359 29 5 28 37 25 2 54 181 183 203 201 211 104 136 181 168 167 184 200 197 211 210 225 213 208
317 336 8 311 10 359 72 302 48 5 71 71 36 37 16 354 1 16 14 14 11 19 37 38 22 355 278 266 236 219 214 204 194 146 172 181 181 169 189 202 203 213 211 203
351 86 314 11 15 14 358 11 21 100 34 126 133 56 13 358 3 6 13 18 17 17 16 27 26 25 27 18 251 230 218 212 203 189 174 185 197 216 210 199 209 211 223 226
325 110 23 326 290 322 90 357 69 93 316 30 126 70 14 350 26 20 8 11 20 24 20 18 22 28 33 36 52 51 234 209 209 207 207 217 215 223 233 241 239 237 234 233
323 33 22 342 347 1 29 332 25 110 37 29 99 221 27 1 33 17 19 16 20 24 14 17 21 24 25 33 36 41 49 57 212 196 198 209 215 236 254 251 255 246 241 235
81 78 138 166 213 231 331 331 9 88 79 206 170 271 337 0 18 26 10 10 13 25 23 17 18 18 19 28 35 33 41 43 61 184 197 200 205 231 255 243 255 249 235 235
76 79 2 283 289 292 251 296 341 61 179 122 220 228 339 337 18 355 355 12 21 15 20 14 12 8 18 20 29 29 33 39 59 92 118 152 192 210 208 217 222 225 229 233
10 141 63 325 311 14 304 299 293 270 247 283 240 270 192 298 126 49 31 24 22 11 15 10 7 5 13 15 19 26 28 36 47 64 83 109 154 164 170 153 156 186 198 194
58 110 60 292 348 352 352 227 202 244 207 188 228 233 159 273 97 27 8 36 15 3 359 3 0 7 14 13 11 17 24 34 45 51 53 69 95 158 189 180 146 172 188 196
116 88 109 241 8 20 247 296 226 221 243 218 208 223 218 97 92 108 91 38 13 354 344 342 349 4 11 10 16 17 23 30 37 37 30 27 18 330 275 251 205 221 234 226
69 107 58 103 207 290 272 238 199 178 289 200 197 208 234 15 40 260 155 49 356 337 329 335 348 356 4 13 13 16 26 26 25 21 15 358 336 313 279 248 237 230 229 229
76 79 112 71 132 218 245 189 130 92 290 190 172 195 205 117 212 261 255 286 342 360 1 360 7 6 9 11 14 25 22 10 5 354 343 335 328 299 292 282 259 244 240 239
27 12 143 180 256 285 241 153 138 77 239 170 172 186 187 203 197 218 280 320 336 331 357 12 17 26 29 18 18 23 13 7 348 340 335 328 317 307 290 284 275 269 259 246
183 152 211 104 14 298 153 77 169 220 98 165 183 192 194 222 237 261 249 294 331 344 343 6 11 16 22 22 28 29 17 358 350 342 337 334 329 316 299 282 278 272 261 250
249 192 187 188 218 237 209 197 211 177 162 198 189 197 200 197 208 215 254 303 312 310 328 326 351 345 355 10 16 16 8 3 360 359 356 350 342 324 319 300 275 266 257 248
247 175 222 357 260 229 222 235 213 190 193 182 188 171 175 183 193 226 257 277 290 298 293 297 301 303 317 351 1 4 1 6 10 8 4 1 349 322 307 293 275 260 256 250
205 145 202 260 278 280 269 228 196 198 170 155 162 169 185 182 209 218 241 259 268 277 282 285 289 278 295 337 348 351 357 1 6 8 9 1 354 343 313 286 273 270 268 263
186 194 178 225 218 192 241 232 170 173 185 179 167 177 185 191 208 231 254 256 252 257 260 275 293 290 303 325 332 355 3 4 0 359 1 3 355 346 329 317 302 286 283 278
Height
777 779 771 769 759 765 764 762 758 743 734 734 725 720 711 704 699 698 693 692 691 689 687 693 694 699 712 722 722 726 725 723 731 739 739 748 754 760 766 769 774 780 789 794
773 774 760 755 754 754 751 755 750 738 730 731 724 721 716 699 694 689 692 688 684 682 677 685 694 698 710 716 714 721 727 729 733 739 739 742 751 753 761 767 772 780 787 793
777 761 751 751 755 755 752 748 745 744 731 723 725 720 717 702 693 689 683 677 679 682 686 691 697 704 710 699 708 721 723 730 734 737 740 745 751 753 761 767 771 778 785 791
766 754 753 755 757 755 762 741 743 740 745 750 722 732 723 713 704 695 693 686 679 683 689 691 697 699 698 697 715 718 722 728 731 734 736 738 744 752 761 763 771 776 783 789
768 757 756 757 753 750 753 743 745 743 745 742 727 732 731 723 717 710 703 695 687 683 685 694 700 700 704 705 715 720 723 725 727 730 733 738 741 747 756 764 771 774 781 787
764 755 753 753 748 748 744 742 740 740 745 749 739 734 742 735 725 714 710 702 692 689 691 695 700 699 707 715 719 722 718 720 723 726 731 736 739 746 752 760 767 772 778 784
777 762 758 753 755 747 748 755 764 771 777 743 745 746 762 741 730 728 725 715 703 696 693 695 699 709 712 717 719 718 719 717 718 719 728 734 739 745 753 760 763 767 774 779
801 797 764 755 755 758 757 753 759 761 767 749 746 761 766 747 741 733 728 721 713 709 702 705 707 714 715 719 720 721 720 715 711 721 727 733 740 745 749 759 762 765 769 773
796 782 765 760 755 758 757 765 759 753 750 776 771 762 753 753 748 743 733 727 723 719 717 712 712 714 717 720 721 721 722 724 723 725 731 738 742 747 749 758 763 767 770 773
784 796 772 766 762 760 761 761 766 774 786 769 770 771 770 767 761 750 742 735 730 725 723 724 723 720 721 721 721 723 725 728 728 729 734 739 743 748 752 759 764 767 771 773
787 792 787 776 779 782 775 779 779 783 780 802 810 774 777 770 763 762 752 745 738 733 732 729 729 726 726 721 721 725 727 731 734 736 739 742 744 746 750 757 762 765 770 774
790 797 818 785 777 778 780 783 792 799 797 789 803 783 777 774 764 763 759 751 746 744 741 738 734 732 729 727 727 727 728 728 731 736 739 743 745 748 750 755 759 763 769 773
792 820 851 813 798 787 791 787 783 799 809 799 814 797 777 776 770 768 768 761 756 751 748 745 741 737 734 730 730 730 732 733 733 736 738 741 745 750 752 754 756 759 765 767
791 822 831 838 821 809 803 790 786 800 825 819 801 796 784 786 777 775 775 771 766 763 760 755 749 745 743 740 738 738 736 736 735 737 741 743 743 751 752 753 754 756 756 756
803 831 817 805 802 795 796 789 786 812 799 817 787 785 781 786 785 783 779 775 772 770 764 762 759 757 753 751 746 744 742 743 741 740 741 745 748 750 749 751 752 754 755 755
810 834 839 832 800 803 794 788 783 783 780 781 783 781 783 781 783 787 785 782 778 775 772 772 768 765 760 757 753 752 750 749 745 744 745 750 753 752 753 750 752 756 757 757
817 835 840 824 811 816 819 783 781 776 776 778 794 780 782 776 778 783 783 783 782 780 776 773 773 770 767 763 760 758 755 751 748 748 750 750 752 752 753 753 750 753 756 757
815 832 833 840 834 828 785 774 773 778 777 778 778 781 781 777 780 784 783 783 782 781 779 776 773 770 768 764 761 759 756 755 754 753 753 753 753 754 753 753 752 752 755 756
816 822 833 833 843 802 779 778 779 780 776 776 780 781 779 778 779 782 782 780 780 780 778 776 773 771 768 766 763 762 759 757 757 757 755 755 755 756 755 755 754 755 755 757
814 822 831 836 822 797 770 773 774 776 787 772 776 780 781 783 784 784 779 779 779 778 777 776 774 772 769 766 764 762 761 761 759 757 756 756 756 757 756 755 755 753 753 755
838 840 833 838 833 797 777 775 775 781 774 771 774 777 781 782 782 780 778 777 777 778 777 775 774 773 773 770 767 765 763 761 761 759 758 757 756 755 753 753 753 752 752 753
808 828 833 828 828 797 774 777 781 770 766 768 772 774 777 776 777 777 777 777 776 775 774 774 773 774 774 773 771 768 766 765 762 759 757 755 754 753 753 753 753 751 751 752
805 795 798 801 787 768 768 761 762 764 765 767 769 769 772 774 775 776 775 775 776 775 774 773 773 773 772 772 770 770 769 767 765 762 760 757 754 753 751 749 750 751 751 752
790 790 790 782 764 768 763 760 759 760 761 763 764 767 769 772 774 775 775 775 774 773 773 772 771 771 772 771 770 769 767 765 764 761 760 758 755 752 750 749 749 749 750 751
786 787 785 785 768 765 758 756 754 758 759 761 764 765 768 770 773 773 773 773 772 771 770 771 770 769 769 769 769 768 766 764 761 760 758 757 756 754 752 750 749 748 747 747
779 773 775 764 750 749 748 744 749 755 757 758 762 765 766 768 770 770 771 770 769 768 767 767 767 767 767 766 766 766 766 763 761 759 757 756 754 752 751 750 748 746 745 744